Atlantic - Newfoundland: Past 24 Hour Conditions

 

Port aux Basques

06:30 AM NDT 20 September 2014
This table is a summary of hourly weather conditions for the past 24 hours.
Date / Time
(NDT)
Wind(knots) Conditions Visibility(km) Pressure(kPa) Air tempC) Relative humidity(%) Dew pointC)
20 September 2014
6:30 W 17 Clear 15 102.6 8 74 4
5:30 W 16 Clear 15 102.6 8 72 4
4:30 WNW 19 Clear 15 102.5 8 72 3
3:30 WNW 21 Partly Cloudy 15 102.5 8 72 3
2:30 WNW 17 gust 22 Mainly Clear 15 102.4 8 70 3
1:30 WNW 17 Clear 15 102.3 7 77 3
0:30 WNW 23 Light Rain 15 102.3 8 76 4
19 September 2014
23:30 WNW 13 Mainly Clear 15 102.3 7 76 3
22:30 WNW 17 gust 24 Light Rain 15 102.2 7 83 4
21:30 NW 16 Partly Cloudy 15 102.2 8 72 3
20:30 NW 12 Clear 15 102.1 8 58 0
19:30 NW 18 Clear 15 102.0 8 63 1
18:30 NW 20 gust 25 Mainly Sunny 15 102.0 8 73 3
17:30 NNW 11 gust 17 Light Rain 15 101.9 7 84 5
16:30 NNW 10 gust 17 Light Rain 15 101.7 9 64 2
15:30 NW 19 gust 26 Mainly Sunny 15 101.6 10 54 1
14:30 WNW 16 gust 26 Sunny 15 101.6 8 67 3
13:30 NW 14 gust 19 Light Rain 15 101.6 7 74 3
12:30 WNW 20 gust 25 Partly Cloudy 15 101.5 9 66 3
11:30 NW 22 gust 27 Mostly Cloudy 15 101.5 8 75 4
10:30 NNW 11 gust 18 Light Rain 15 101.5 6 86 4
9:30 NW 16 Partly Cloudy 15 101.5 9 71 4
8:30 WNW 10 gust 15 Partly Cloudy 15 101.4 9 71 4
7:30 WNW 18 Mainly Sunny 15 101.4 8 80 5
6:30 NW 8 Clear 15 101.3 6 85 4
 
Map of Atlantic - Newfoundland marine weather areas Southwestern Grand Banks - 44138 Banquereau - 44139 Tail of the Bank - 44140 Nickerson Bank - 44251 Northeast Burgeo Bank - 44255 Blanc-Sablon Airport Cap Whittle Chevery Natashquan Airport Heath Point Miscou Island Grand Étang Ingonish Beach North Mountain St.Paul Island J.A. Douglas McCurdy Sydney Airport Charlottetown Airport East Point North Cape Argentia Bonavista Burgeo Cape Race Corner Brook Daniel's Harbour Englee Ferolle Point La Scie Port aux Basques Rocky Harbour Sagona Island St. Anthony Airport St. John's Int'l Airport St. Lawrence Stephenville Airport Twillingate Winterland Wreckhouse Cartwright Airport Mary's Harbour Grates Cove Pool's Island Marticot Island Long Pond Îles de la Madeleine Airport
Legend: buoyBuoy land stationLand Station